Tracking 19176 objects as of 26-May-2018
HD Live streaming from Space Station
objects crossing your sky now

METEOR 2-6 DEB

Track METEOR 2-6 DEB now!
10-day predictions


NORAD ID: 31406
Int'l Code: 1980-073H
Perigee: 790.9 km
Apogee: 855.2 km
Inclination: 81.2 °
Period: 101.2 minutes
Semi major axis: 7194 km
RCS: 0.0145 m2 (small)
Launch date: September 9, 1980
Source: Commonwealth of Independent States (former USSR) (CIS)
Launch site: PLESETSK MISSILE AND SPACE COMPLEX (PKMTR)

Note: This is SATELLITE DEBRIS
aabbcc
Your satellite tracking list
Your tracking list is empty




NASA's NSSDC Master Catalog

Two Line Element Set (TLE):
1 31406U 80073H   18144.15683357 +.00001178 +00000-0 +51449-3 0  9991
2 31406 081.2217 049.6951 0044673 085.9523 274.6760 14.22794973596052
Source of the keplerian elements: AFSPC